Home > Weather > Stade > Past weeks

Flag for Germany Weather for the Past 2 Weeks in Stade, Lower Saxony, Germany

Now
41 °F

Rain showers. Partly cloudy.


Feels Like: 33 °F
Forecast: 38 / 42 °F
Wind: 15 mph from Southwest

Location: Hamburg-Fuhlsbuettel

Current Time: Feb 9, 2016 at 5:44:31 AM

Latest Report: Feb 9, 2016 at 4:50 AM


Visibility: 5 mi

Pressure: 29.21 "Hg

Humidity: 93%

Dew point: 39 °F

Location of StadeLocation

Historic Weather in Stade — Graph

°F

Stade Temperature Yesterday

Maximum temperature yesterday: 50 °F (at 12:50 PM)
Minimum temperature yesterday: 43 °F (at 1:50 AM)
Average temperature yesterday: 46 °F

High & Low Weather Summary for the Past Weeks

 TemperatureHumidityPressure
High54 °F (Feb 1, 8:20 PM)100% (Jan 25, 3:20 AM)30.24 "Hg (Jan 25, 3:20 AM)
Low34 °F (Jan 31, 1:50 AM)57% (Feb 2, 6:20 PM)29.09 "Hg (Feb 8, 3:20 PM)
Average45 °F84%29.80 "Hg
* Reported Jan 25 3:20 AM — Feb 9 3:50 AM, Stade, Weather by CustomWeather, © 2016

Note: Actual official high and low records may vary slightly from our data, if they occured in-between our weather recording intervals... More about our weather records

Advertising

Stade Weather History for the Previous 24 Hours

 ConditionsComfort  
Time TempWeatherWind HumidityBarometerVisibility
3:50 AM
Tue, Feb 9
43 °FLight rain. Passing clouds.29 mph87%29.18 "HgN/A
3:20 AM43 °FSprinkles. Passing clouds.23 mph87%29.15 "HgN/A
2:50 AM43 °FPassing clouds.23 mph87%29.15 "HgN/A
2:20 AM43 °FSprinkles. Passing clouds.24 mph87%29.15 "HgN/A
1:50 AM43 °FSprinkles. Passing clouds.21 mph87%29.15 "HgN/A
1:20 AM43 °FPassing clouds.22 mph93%29.12 "HgN/A
12:50 AM43 °FSprinkles. Passing clouds.24 mph87%29.12 "HgN/A
12:20 AM43 °FSprinkles. Passing clouds.21 mph93%29.12 "HgN/A
11:50 PM
Mon, Feb 8
45 °FRain showers. Passing clouds.29 mph87%29.12 "HgN/A
11:20 PM45 °FLight rain. Passing clouds.23 mph87%29.09 "HgN/A
10:50 PM45 °FLight rain. Passing clouds.24 mph87%29.12 "HgN/A
10:20 PM45 °FLight rain. Passing clouds.24 mph87%29.12 "HgN/A
9:50 PM45 °FLight rain. Passing clouds.26 mph81%29.09 "HgN/A
9:20 PM45 °FLight rain. Passing clouds.30 mph81%29.12 "HgN/A
8:50 PM46 °FLight rain. Partly cloudy.28 mph71%29.09 "HgN/A
8:20 PM45 °FLight rain. Passing clouds.24 mph76%29.12 "HgN/A
7:50 PM46 °FPassing clouds.22 mph71%29.12 "HgN/A
7:20 PM46 °FPartly cloudy.21 mph71%29.12 "HgN/A
6:50 PM46 °FPassing clouds.20 mph71%29.12 "HgN/A
6:20 PM45 °FPassing clouds.17 mph81%29.12 "HgN/A
5:50 PM45 °FPassing clouds.18 mph81%29.12 "HgN/A
5:20 PM46 °FPassing clouds.22 mph76%29.12 "HgN/A
4:50 PM43 °FSprinkles. Broken clouds.14 mph81%29.12 "HgN/A
4:20 PM48 °FThunderstorms. Partly sunny.14 mph76%29.09 "Hg5 mi
3:50 PM48 °FScattered clouds.22 mph71%29.09 "HgN/A
3:20 PM48 °FPassing clouds.24 mph71%29.09 "HgN/A
2:50 PM48 °FPassing clouds.26 mph71%29.12 "HgN/A
2:20 PM50 °FScattered clouds.29 mph67%29.12 "HgN/A
1:50 PM50 °FScattered clouds.25 mph71%29.12 "HgN/A
1:20 PM50 °FBroken clouds.26 mph71%29.12 "HgN/A
12:50 PM50 °FBroken clouds.26 mph71%29.12 "HgN/A
12:20 PM48 °FSprinkles. Partly sunny.26 mph82%29.12 "HgN/A
11:50 AM48 °FPartly sunny.24 mph76%29.12 "HgN/A
11:20 AM48 °FPartly sunny.25 mph76%29.15 "HgN/A
10:50 AM48 °FPartly sunny.25 mph76%29.15 "HgN/A
10:20 AM48 °FPartly sunny.25 mph76%29.15 "HgN/A
9:50 AM46 °FPartly sunny.23 mph82%29.15 "HgN/A
9:20 AM45 °FLight rain. Partly sunny.25 mph87%29.18 "HgN/A
8:50 AM46 °FLight rain. Partly sunny.24 mph76%29.18 "HgN/A
8:20 AM45 °FLight rain. Partly sunny.22 mph81%29.21 "HgN/A
7:50 AM45 °FLight rain. Passing clouds.23 mph81%29.21 "HgN/A
7:20 AM45 °FLight rain. Passing clouds.21 mph76%29.21 "HgN/A
6:50 AM43 °FLight rain. Passing clouds.18 mph81%29.24 "HgN/A
6:20 AM43 °FLight rain. Passing clouds.20 mph81%29.27 "HgN/A
5:50 AM43 °FLight rain. Passing clouds.23 mph81%29.27 "HgN/A
5:20 AM43 °FLight rain. Passing clouds.22 mph76%29.30 "HgN/A
Weather by CustomWeather, © 2016

See weather overviewHow to use our weather pages